Regional Weather Roundup
Issued by NWS

Home | Current Version | Previous Version | Graphics & Text | Print | Product List | Glossary On
Versions: 1 2 3 4 5 6 7 8 9 10 11 12 13 14 15 16 17 18 19 20 21 22 23 24 25 26 27 28 29 30 31 32 33 34 35 36 37 38 39 40 41 42 43 44 45 46 47 48 49 50
000
ASUS43 KDMX 270003
RWRIA

WEATHER ROUNDUP FOR IOWA
NATIONAL WEATHER SERVICE DES MOINES IA
700 PM CDT THU MAY 26 2016

NOTE: "FAIR" INDICATES FEW OR NO CLOUDS BELOW 12,000 FEET WITH NO
SIGNIFICANT WEATHER AND/OR OBSTRUCTIONS TO VISIBILITY.

* - THESE STATIONS ARE NOT NWS STATIONS...THUS NOT UNDER NWS
QUALITY CONTROL.  THEY ALSO DO NOT REPORT WEATHER SUCH
AS PRECIPITATION OR FOG.

IAZ001>003-012>014-020>022-031>034-043>046-270100-
   NORTHWEST IOWA

CITY           SKY/WX    TMP DP  RH WIND       PRES   REMARKS
CARROLL *      LGT RAIN  66  63  88 S33G40    29.88F
CHEROKEE *     CLOUDY    71  60  67 CALM      29.83S
LE MARS *      CLOUDY    73  59  60 E7        29.83S
ORANGE CITY *  SUNNY     73  59  60 E3        29.83S
SHELDON *      CLOUDY    72  59  64 SE8       29.82S
SIOUX CITY     CLOUDY    73  59  61 MISG      29.80F
6HR MIN TEMP:  73; 6HR MAX TEMP:  82;

SPENCER        CLOUDY    69  59  70 SE8       29.84S
6HR MIN TEMP:  69; 6HR MAX TEMP:  79;

STORM LAKE *   PTSUNNY   72  59  64 SE9       29.84S
$$

IAZ055>058-069>071-079>083-090>094-270100-
   SOUTHWEST IOWA

CITY           SKY/WX    TMP DP  RH WIND       PRES   REMARKS
ATLANTIC *     RAIN      63  59  88 SE8       30.01R
AUDUBON *      RAIN      63  59  88 S15       29.98S
CLARINDA *       N/A     66  63  88 MISG      29.90F
COUNCIL BLFS * CLOUDY    63  59  88 SE21G39   29.86F FOG
CRESTON *      HVY RAIN  64  61  88 CALM      29.99R
HARLAN  *      LGT RAIN  63  61  94 SE23G33   29.93F
LAMONI         LGT RAIN  64  60  87 SW14      29.95R
6HR MIN TEMP:  64; 6HR MAX TEMP:  77; 6HR PCP:  0.33;

RED OAK *      HVY RAIN  63  61  94 N13G21    29.94S
SHENANDOAH *   HVY RAIN  63  63 100 N25G32    29.91R VSB 3/4
$$

IAZ047>049-059>061-072>074-084-270100-
   CENTRAL IOWA

CITY           SKY/WX    TMP DP  RH WIND       PRES   REMARKS
AMES           LGT RAIN  73  67  81 SW17      29.89R
6HR MIN TEMP:  73; 6HR MAX TEMP:  82; 6HR PCP: TRACE;

ANKENY *       LGT RAIN  73  70  88 SW13      29.91R
BOONE *        LGT RAIN  68  61  77 W25G41    29.92R
CHARITON *     HVY RAIN  68  64  88 W8G18     29.97R
DES MOINES     TSTM      69  64  84 S28       29.95R
6HR MIN TEMP:  69; 6HR MAX TEMP:  82; 6HR PCP:  0.08;

GRINNELL*      LGT RAIN  71  65  80 W6        29.89R
KNOXVILLE *    RAIN      72  68  88 W20G26    29.95R
MARSHALLTOWN   CLOUDY    74  64  71 S10       29.87R
6HR MIN TEMP:  74; 6HR MAX TEMP:  81;

NEWTON *       CLOUDY    72  72 100 SW14      29.91R FOG
PELLA *        RAIN      72  69  90 W10G17    29.94R
PERRY *        HVY RAIN  63  61  93 SW26      29.96R
$$

IAZ004>006-015-016-023>025-035-036-270100-
   NORTH CENTRAL IOWA

CITY           SKY/WX    TMP DP  RH WIND       PRES   REMARKS
ALGONA *       CLOUDY    73  59  60 SE7       29.86S
CLARION *      CLOUDY    73  68  83 CALM      29.87R
ESTHERVILLE    CLOUDY    70  61  73 SE5       29.85R
6HR MIN TEMP:  70; 6HR MAX TEMP:  78;

FORT DODGE *   CLOUDY    72  61  68 S6        29.87F
MASON CITY     CLOUDY    74  63  68 S5        29.87R
6HR MIN TEMP:  74; 6HR MAX TEMP:  82;

FOREST CITY *  MOSUNNY   70  61  73 CALM      29.86R
WEBSTER CITY * CLOUDY    73  66  78 SW8       29.87R
IOWA FALLS *     N/A     75  65  69 S7        29.88R
$$

IAZ007>011-017>019-026>030-037>042-050>054-066-270100-
   NORTHEAST IOWA

CITY           SKY/WX    TMP DP  RH WIND       PRES   REMARKS
CEDAR RAPIDS   CLOUDY    78  65  63 N5        29.84R HX  80
6HR MIN TEMP:  77; 6HR MAX TEMP:  81;

CHARLES CITY * SUNNY     77  61  57 CALM      29.86R
CLINTON *      CLOUDY    82  65  56 CALM      29.84R HAZE    HX  84
DECORAH *      CLOUDY    77  57  50 CALM      29.85R
DUBUQUE        PTSUNNY   77  61  57 N5        29.86R
6HR MIN TEMP:  77; 6HR MAX TEMP:  83;

MONTICELLO *   CLOUDY    79  59  50 SW6       29.84R HX  80
OELWEIN *      CLOUDY    79  59  50 CALM      29.85S HX  80
WATERLOO       CLOUDY    77  61  57 CALM      29.83S
6HR MIN TEMP:  76; 6HR MAX TEMP:  82;

$$

IAZ064-065-067-068-078-270100-
   EAST CENTRAL IOWA

CITY           SKY/WX    TMP DP  RH WIND       PRES   REMARKS
DAVENPORT      CLOUDY    82  66  58 NW3       29.84R HX  84
6HR MIN TEMP:  80; 6HR MAX TEMP:  84;

IOWA CITY      PTSUNNY   80  64  58 N3        29.84R HX  82
6HR MIN TEMP:  79; 6HR MAX TEMP:  86;

MT. PLEASANT * CLOUDY    81  66  61 SW5       29.85R HX  83
MUSCATINE *    CLOUDY    82  63  51 S8        29.83R HX  83
QUAD CITIES    CLOUDY    83  63  50 S5        29.81S HX  84
6HR MIN TEMP:  83; 6HR MAX TEMP:  88;

$$

IAZ062-063-075>077-085>089-095>099-270100-
   SOUTHEAST IOWA

CITY           SKY/WX    TMP DP  RH WIND       PRES   REMARKS
BURLINGTON     CLOUDY    77  69  76 CALM      29.83R
6HR MIN TEMP:  77; 6HR MAX TEMP:  83;

FAIRFIELD *      N/A    N/A N/A N/A MISG        N/A
FORT MADISON * CLOUDY    77  66  69 CALM      29.85R
KEOKUK *       CLOUDY    79  66  65 CALM      29.82S HX  81
OSKALOOSA *    LGT RAIN  75  64  69 W14       29.89R
OTTUMWA        LGT RAIN  75  66  73 W12       29.89R
6HR MIN TEMP:  75; 6HR MAX TEMP:  82; 6HR PCP: TRACE;

WASHINGTON *   SUNNY     81  75  83 W5        29.85R HX  86
$$

ABBREVIATIONS USED IN REMARKS
   TC - TEMPERATURES IN CELSIUS
  WCI - WIND CHILL INDEX
   HX - HEAT INDEX
  VSB - VISIBILITY
$$





USA.gov is the U.S. government's official web portal to all federal, state and local government web resources and services.